DECAYED

COSMOS 2251 DEB, 34330 (Decayed)

Orbit data source: Space-Track

COSMOS 2251 DEB, 34330 was space debris in LEO originally from a launch on Wed, 16 Jun 1993 UTC launched from the Plesetsk Missile And Space Complex (PKMTR). The debris from Iridium 33, an American commercial communications satellite, has been tracked extensively since its accidental collision with the defunct Russian satellite Cosmos 2251 in 2009. This event, occurring at high speed in low Earth orbit (LEO), generated thousands of pieces of space debris, significantly increasing the risk of further collisions. The Iridium 33 debris cloud has impacted space traffic management and orbital debris mitigation strategies, making it a subject of ongoing study in space situational awareness.

Not visible in the next 10 days
Identifier
34330, 1993-036PC
Orbit
Decayed
Country
Flag of CISCIS
Related business
Manufacturer
Unknown
Mission
Decayed spacecraft
Bus & Motor
Unknown
Mass
Unknown
Launch date (UTC)
1993-06-16 (32 years ago)
Launch vehicle
Unknown
Launch site
Plesetsk Missile And Space Complex (PKMTR)
Object type
Payload
Rocket body
Debris
Shape & HBR
Unknown shape, 0.1 m
Radar Cross Section
Small (<0.1 m²)

Expand to show TLE details & history
Last TLE update: 10 months ago

TLE from 10 months ago
0 COSMOS 2251 DEB
1 34330U 93036PC  24365.41238267  .20254263  19512-5  69883-2 0  9990
2 34330  73.9624 239.7777 0010930 170.2367 189.9100 16.25097991841423
Epoch: 2024-12-30T09:53Z
TLE epoch observation values (Epoch: 2024-12-30T09:53:49.862Z)
Latitude
0.00003°
Longitude
-8.01479°
Altitude
215.668 km
Speed
7.773 km/s
True Right ascension
15h 59m 06s
True Declination
0° 00' 00"
Sunlit
Object was in daylight at epoch
Visualization orbit readout
Latitude
Unknown
Longitude
Unknown
Altitude
Unknown
Speed
Unknown
Apparent Right ascension
Unknown
Apparent Declination
Unknown
Sunlit
N/A
Visualization observer readout
Local Sidereal Time
00:20:07
Azimuth
Unknown
Elevation
Unknown
Doppler factor
Unknown
Orbital elements
Apogee altitude
210.366 km
Perigee altitude
195.979 km
Semi-major axis
6,581.309 km
Eccentricity
0.00109
Inclination
73.9624°
RAAN
239.7777°
Arg. of periapsis
170.2367°
True anomaly
189.88847°
Mean anomaly
189.91°
Eccentric anomaly
189.89923°
Mean motion
4.06513 °/min
Orbital period
88.56 mins
BSTAR
0.0069883

Documentation

Showing up to 5 results
|